TimeMDT,TemperatureF,Dew PointF,Humidity,Sea Level PressureIn,VisibilityMPH,Wind Direction,Wind SpeedMPH,Gust SpeedMPH,PrecipitationIn,Events,Conditions,WindDirDegrees,DateUTC
12:53 AM,64.0,57.9,80,30.01,10.0,East,3.5,-,N/A,,Clear,80,2013-09-05 06:53:00
1:53 AM,64.0,55.9,75,29.99,10.0,Calm,Calm,-,N/A,,Clear,0,2013-09-05 07:53:00
2:53 AM,62.1,55.9,80,29.98,10.0,West,4.6,-,N/A,,Clear,280,2013-09-05 08:53:00
3:53 AM,60.1,57.0,90,29.99,10.0,West,4.6,-,N/A,,Clear,270,2013-09-05 09:53:00
4:53 AM,60.1,57.9,93,29.98,10.0,West,4.6,-,N/A,,Clear,280,2013-09-05 10:53:00
5:53 AM,60.1,57.0,90,30.04,10.0,ENE,3.5,-,N/A,,Clear,60,2013-09-05 11:53:00
6:53 AM,62.1,55.9,80,30.05,10.0,NE,4.6,-,N/A,,Clear,50,2013-09-05 12:53:00
7:53 AM,69.1,57.9,68,30.06,10.0,SE,4.6,-,N/A,,Clear,130,2013-09-05 13:53:00
8:53 AM,77.0,57.0,50,30.05,10.0,East,5.8,-,N/A,,Clear,80,2013-09-05 14:53:00
9:53 AM,82.9,57.0,41,30.04,10.0,East,9.2,-,N/A,,Clear,100,2013-09-05 15:53:00
10:53 AM,86.0,54.0,33,30.03,10.0,SSE,5.8,-,N/A,,Clear,160,2013-09-05 16:53:00
11:53 AM,90.0,54.0,29,30.01,10.0,SSE,9.2,-,N/A,,Clear,150,2013-09-05 17:53:00
12:53 PM,91.9,53.1,27,29.99,10.0,SE,10.4,18.4,N/A,,Clear,140,2013-09-05 18:53:00
1:53 PM,93.9,52.0,24,29.98,10.0,South,11.5,17.3,N/A,,Clear,170,2013-09-05 19:53:00
2:53 PM,96.1,50.0,21,29.95,10.0,SSE,16.1,24.2,N/A,,Clear,150,2013-09-05 20:53:00
3:53 PM,96.1,50.0,21,29.95,10.0,South,13.8,-,N/A,,Clear,190,2013-09-05 21:53:00
4:53 PM,95.0,51.1,22,29.93,10.0,South,6.9,-,N/A,,Clear,170,2013-09-05 22:53:00
5:53 PM,93.9,51.1,23,29.93,10.0,South,11.5,-,N/A,,Clear,180,2013-09-05 23:53:00
6:53 PM,89.1,55.0,31,29.92,10.0,SSE,8.1,-,N/A,,Clear,160,2013-09-06 00:53:00
7:53 PM,79.0,55.9,45,29.94,10.0,SSE,5.8,-,N/A,,Clear,150,2013-09-06 01:53:00
8:53 PM,73.9,55.9,53,29.94,10.0,SSE,9.2,-,N/A,,Clear,150,2013-09-06 02:53:00
9:53 PM,72.0,55.9,57,29.93,10.0,SE,8.1,-,N/A,,Clear,140,2013-09-06 03:53:00
10:53 PM,73.9,53.1,48,29.91,10.0,SE,8.1,-,N/A,,Clear,130,2013-09-06 04:53:00
11:53 PM,71.1,52.0,51,29.90,10.0,SSE,8.1,-,N/A,,Clear,150,2013-09-06 05:53:00